GFSGL_sfc_dewp_159.txt.gz
Dewpoint
70 70 69 68 69 68 68 67 66 66 64 63 63 61 59 58 56 55 55 52 51 50 49 47 47 45 41 39 41 39 38 37 34 33 36 34 37 33 34 34 35 34 36
69 69 68 69 68 68 67 66 65 63 62 62 60 58 56 55 55 54 51 51 49 48 46 43 41 40 39 37 39 34 36 35 35 33 33 31 35 34 35 33 33 34 34
69 68 68 68 68 67 66 65 63 62 61 58 57 56 56 54 52 51 51 49 46 45 42 41 39 36 35 36 35 34 36 37 34 33 30 31 32 34 34 32 33 33 33
69 68 68 67 66 66 65 63 62 59 57 56 55 54 53 52 50 50 49 47 45 42 39 36 35 34 33 37 36 35 36 35 34 31 30 30 31 32 32 31 31 31 32
68 67 67 67 66 64 62 61 59 56 55 54 52 50 50 51 48 49 48 48 44 40 36 32 31 34 40 40 38 38 38 35 34 30 28 28 28 29 31 31 32 31 32
64 64 66 64 61 60 60 58 56 53 50 47 46 45 47 49 48 48 44 41 39 39 36 33 25 30 33 38 41 42 42 32 29 32 31 31 29 32 32 31 31 30 30
63 62 61 59 59 59 57 55 52 47 46 44 43 43 43 44 42 41 40 34 34 32 28 23 18 23 31 31 35 37 37 39 39 36 33 30 32 33 33 32 31 31 30
61 60 60 58 57 56 53 50 47 46 44 42 39 38 39 39 39 37 35 27 27 29 29 24 22 21 30 32 29 29 29 30 30 32 33 35 33 33 31 33 34 30 32
59 59 57 56 53 51 49 48 48 46 43 39 36 34 34 36 39 36 29 24 20 21 23 25 23 20 32 34 30 28 26 26 33 39 39 37 37 36 36 33 28 30 30
56 55 55 53 50 49 48 47 46 44 39 36 33 33 36 32 38 39 36 32 26 24 23 21 29 23 31 33 24 28 23 25 30 29 29 30 32 31 36 32 30 30 28
54 52 51 50 48 48 46 46 42 38 37 35 32 31 29 29 34 37 37 36 31 30 23 21 21 26 29 31 34 26 27 32 30 28 28 28 29 30 32 32 30 33 28
52 50 49 48 48 46 45 42 39 35 33 30 28 28 28 28 33 35 34 32 31 22 23 24 25 31 32 34 32 33 34 32 28 28 28 29 28 30 32 32 32 32 30
49 48 47 46 45 44 41 37 33 31 28 24 22 23 24 25 28 35 34 34 36 27 24 28 33 33 34 32 34 33 32 28 28 28 28 29 30 32 33 32 30 29 30
46 46 45 43 39 36 34 33 30 26 23 22 25 28 31 30 29 30 30 31 34 29 30 33 34 34 34 32 30 29 26 29 29 28 29 29 31 32 32 32 27 28 28
44 41 37 35 31 31 32 33 31 31 28 32 33 27 23 22 26 31 27 23 25 28 32 28 27 26 25 25 25 28 27 27 28 28 29 29 31 32 32 31 27 27 26
38 33 32 28 27 26 26 26 32 31 31 31 30 24 26 30 32 32 33 34 34 33 28 25 25 25 24 24 24 26 26 27 28 28 28 28 31 32 32 28 26 27 25
36 29 28 27 25 24 22 20 18 27 32 31 31 31 31 31 31 32 33 32 32 29 25 25 24 24 24 25 24 25 25 25 27 28 28 28 30 32 32 27 25 26 24
32 34 30 28 27 24 22 20 17 16 18 21 29 29 30 30 30 31 32 31 26 27 24 23 23 23 24 24 24 24 24 24 25 27 27 27 30 31 32 26 24 26 25
36 34 33 32 30 26 21 20 19 20 21 21 22 26 27 28 29 31 31 27 25 24 22 23 24 24 23 23 22 21 21 23 24 25 26 26 29 30 31 25 25 27 26
36 33 29 26 26 24 21 19 21 23 23 25 25 24 25 29 27 28 28 26 26 25 24 23 23 23 23 21 20 19 20 21 22 24 24 26 28 30 31 25 25 25 24
34 30 32 28 27 23 20 21 23 25 28 29 27 27 27 28 27 26 26 26 25 24 25 23 21 22 21 21 21 19 19 19 22 24 23 25 27 30 30 25 25 25 25
30 28 28 27 26 25 26 28 29 27 26 24 22 22 29 28 28 28 27 26 26 25 25 23 23 23 20 20 21 20 19 19 21 23 22 24 27 29 29 24 24 24 24
32 31 30 30 28 27 24 23 24 24 24 24 24 26 27 28 28 28 29 28 27 26 25 25 24 23 21 22 23 21 20 21 23 23 23 24 26 28 26 24 23 23 24
29 28 28 29 27 25 23 23 23 24 24 26 27 28 28 28 28 28 28 29 28 27 26 25 26 23 22 22 22 21 23 25 26 25 25 25 26 28 23 22 24 23 24
28 31 30 30 29 28 27 27 27 27 27 27 28 28 28 29 29 30 29 29 27 27 26 25 26 23 22 22 21 22 26 28 27 27 26 26 27 25 24 23 23 23 24
33 31 30 30 29 29 29 28 28 28 28 29 29 29 29 28 30 29 28 27 27 27 27 26 26 24 23 24 25 26 27 27 26 27 26 26 25 23 23 22 22 22 24

GFSGL_sfc_dewp_162.txt.gz
Dewpoint
68 66 67 68 68 68 68 69 68 67 65 63 62 60 57 55 54 51 50 49 48 46 44 41 39 37 36 36 35 35 34 34 31 32 34 33 33 34 33 35 35 33 33
66 66 67 68 68 68 68 67 67 65 64 62 60 57 56 55 51 50 49 47 44 41 39 37 36 35 34 35 33 34 35 34 31 29 30 30 31 32 33 33 32 32 33
66 66 66 68 68 68 67 66 65 64 62 60 58 56 56 53 51 49 46 44 41 39 37 34 34 35 36 34 34 34 35 34 32 29 28 30 31 32 32 32 32 32 33
65 64 65 67 67 67 66 64 63 62 60 58 57 55 53 51 48 46 42 38 35 34 34 35 36 37 38 37 37 37 36 33 32 30 29 29 30 31 32 30 31 31 31
64 64 66 67 67 65 63 62 61 60 58 56 55 52 51 49 46 44 40 34 32 32 31 30 36 39 41 39 37 37 34 31 31 30 29 30 28 29 29 31 30 31 31
64 64 66 66 64 62 60 60 58 57 54 54 53 51 49 48 46 45 40 34 33 29 21 23 31 34 35 39 39 40 37 30 30 31 31 30 29 31 31 30 30 29 28
63 64 66 63 61 60 58 56 54 52 51 51 50 49 44 41 41 40 38 27 21 21 21 22 24 31 32 29 32 33 33 37 38 33 30 30 31 30 30 30 30 29 29
60 61 62 60 57 54 53 51 50 49 49 49 46 40 37 36 37 35 33 22 22 22 22 21 21 24 33 30 27 26 26 27 33 34 33 31 30 31 32 33 32 30 30
55 54 57 56 53 51 51 48 47 47 46 45 41 38 33 30 32 29 21 18 20 22 22 22 20 22 34 32 27 25 26 28 34 37 37 36 35 35 37 32 29 29 27
56 55 53 51 51 49 48 47 45 45 43 37 36 31 30 27 33 31 23 18 19 20 19 19 32 26 33 34 25 25 27 28 30 28 29 30 31 33 36 33 31 29 27
53 53 50 49 49 47 46 44 43 40 36 32 31 34 34 33 34 35 32 22 22 21 21 22 19 34 34 34 32 30 31 30 29 28 29 29 30 31 32 33 32 30 28
50 49 48 48 48 46 44 42 40 35 28 28 28 28 31 35 38 37 35 32 30 21 22 22 26 35 33 33 30 33 33 31 28 28 28 29 30 31 32 33 32 30 30
48 46 46 45 44 44 42 37 30 28 26 24 24 25 26 27 30 36 35 35 35 27 29 35 34 33 33 31 33 33 32 29 27 27 28 29 30 32 32 31 29 28 29
45 44 43 42 41 38 33 30 27 26 25 24 24 26 27 27 29 30 28 27 32 30 32 31 33 32 33 31 28 28 28 30 28 28 27 29 31 32 31 31 26 27 26
43 42 40 37 32 30 29 27 24 26 26 26 26 26 29 29 27 28 26 24 28 30 28 25 24 24 24 25 25 25 27 27 28 28 27 28 29 31 31 30 25 26 24
39 37 33 30 29 28 29 31 34 34 32 31 31 27 26 31 34 34 34 33 31 30 25 23 23 24 24 24 24 21 24 25 26 27 26 27 28 30 31 26 24 25 24
37 32 30 28 27 29 30 29 26 29 32 31 31 31 31 33 33 33 32 31 30 27 23 23 23 24 24 24 22 22 22 24 25 26 25 26 28 29 30 25 24 25 24
34 33 26 24 23 22 22 23 21 20 21 23 30 30 31 31 32 31 31 28 24 25 23 23 23 23 22 21 20 19 21 22 23 24 24 25 27 28 29 25 24 25 24
31 28 26 23 20 19 18 19 20 21 22 22 22 27 29 32 32 31 30 24 22 22 23 23 23 22 21 20 18 18 19 21 22 22 23 24 26 28 28 26 24 26 25
31 31 28 29 20 18 19 21 22 22 23 24 25 25 27 26 25 25 25 25 24 23 23 22 22 22 20 18 17 17 17 19 20 21 22 24 26 27 27 26 24 24 24
29 29 26 18 18 20 22 23 24 24 25 27 27 27 28 25 25 25 24 24 24 23 23 22 19 19 19 19 17 17 17 18 20 22 22 23 25 26 27 25 24 24 25
30 24 19 18 21 22 24 27 28 27 24 23 26 28 28 27 26 26 25 24 24 24 24 21 20 20 19 18 17 17 17 18 21 22 23 24 24 26 26 23 23 24 25
27 25 24 25 26 29 29 27 25 24 25 26 26 26 26 27 27 26 26 26 25 25 25 22 20 19 21 21 20 19 19 21 23 24 24 24 25 26 25 23 23 23 25
29 28 26 26 26 26 25 24 24 26 26 26 27 27 27 27 27 27 27 27 26 26 26 24 22 21 21 21 20 21 24 25 25 25 25 25 25 25 23 22 23 23 24
28 28 26 25 24 24 24 24 27 27 26 26 27 27 28 28 28 28 27 27 26 26 26 24 23 22 22 21 21 23 26 27 26 27 25 25 24 23 23 22 22 23 24
30 29 29 28 27 26 28 28 28 28 27 28 28 28 29 28 28 28 28 27 26 26 26 26 24 23 23 23 24 26 26 26 26 27 26 24 23 22 23 22 22 22 24

GFSGL_sfc_dewp_165.txt.gz
Dewpoint
66 66 66 68 68 68 67 66 67 67 66 64 62 59 56 56 54 53 52 50 45 41 38 37 36 34 33 33 34 33 32 32 25 27 33 31 30 30 32 34 35 33 33
65 65 66 67 67 67 67 67 68 66 65 63 60 58 56 54 53 52 51 45 42 38 37 35 35 34 33 33 33 34 32 31 27 25 28 29 29 30 32 32 32 32 32
65 65 65 65 67 67 67 68 66 65 63 61 59 57 54 54 52 49 47 40 36 35 35 35 36 36 35 35 35 34 33 32 30 28 27 29 30 30 30 31 31 31 32
65 64 63 64 65 67 68 67 65 63 61 60 58 55 54 52 48 44 36 34 34 35 37 38 38 37 35 36 36 35 31 30 30 29 29 29 29 29 30 30 30 31 30
62 63 63 64 65 66 66 66 64 62 60 58 56 53 51 49 43 37 31 29 31 33 37 38 39 40 41 38 33 31 30 29 30 29 29 29 28 29 29 30 30 30 29
59 63 63 64 64 65 63 61 60 59 57 55 54 51 49 45 42 39 29 22 26 28 29 32 32 35 37 39 39 39 36 32 30 29 28 27 28 29 30 30 29 28 27
58 61 62 63 63 62 60 57 56 55 55 53 51 49 45 42 40 38 33 20 23 24 25 27 28 31 30 27 33 34 35 38 36 30 27 28 28 30 30 31 31 29 29
59 61 62 62 59 56 55 54 54 52 49 48 46 44 42 40 35 32 30 22 22 23 23 24 26 29 32 27 27 27 28 30 33 33 31 31 31 33 33 32 31 30 29
60 62 61 59 55 54 53 52 51 49 47 45 44 41 36 29 33 31 24 20 20 21 22 23 25 28 34 33 27 27 27 28 32 35 35 35 36 36 36 32 30 29 26
59 59 55 53 52 50 50 49 49 47 45 43 39 33 31 24 31 31 24 20 20 20 20 27 34 32 35 33 27 27 26 27 30 28 29 30 32 32 35 32 31 29 26
53 53 53 52 51 50 48 48 46 44 42 38 26 21 20 23 28 32 30 19 20 20 22 26 29 35 35 34 33 29 31 28 29 28 29 30 30 31 31 32 32 30 27
47 47 46 47 47 46 45 45 44 41 38 33 24 25 27 27 33 34 33 31 30 23 25 28 30 34 34 33 31 33 33 30 27 28 28 28 29 30 31 32 31 29 28
46 46 45 44 44 44 43 43 41 37 30 29 28 29 32 31 31 35 35 34 34 29 27 32 33 32 31 30 33 33 31 28 27 26 26 27 29 31 31 31 28 26 28
44 44 43 42 42 43 43 42 37 31 30 31 30 29 27 28 31 29 33 33 34 31 33 31 31 30 29 28 26 27 27 28 27 26 26 27 29 29 29 29 24 26 25
42 42 41 41 40 39 39 37 29 30 34 30 29 25 27 28 26 29 28 25 26 27 26 25 23 22 20 21 22 23 25 25 26 26 26 26 27 28 28 27 24 25 24
39 38 38 37 37 33 32 33 33 33 33 33 32 29 28 31 33 33 33 32 31 29 24 23 22 22 21 20 20 20 22 24 24 25 25 26 26 27 28 24 24 24 24
38 38 37 32 29 30 27 27 27 31 33 33 33 33 32 33 33 32 32 31 30 27 23 22 22 21 20 20 19 20 20 22 23 24 24 25 26 27 26 24 23 24 23
36 33 30 29 28 26 26 26 24 23 24 26 32 32 33 32 31 31 30 27 23 24 22 21 21 20 19 18 17 18 19 21 22 22 23 24 25 26 26 24 23 24 24
31 25 26 26 24 24 23 23 23 23 24 25 27 29 31 31 31 30 29 23 22 22 22 22 21 19 17 16 15 16 17 20 21 22 23 24 24 25 24 24 24 25 25
28 29 26 25 22 22 22 23 23 24 25 26 25 25 24 24 23 24 24 23 23 23 22 21 20 18 16 14 14 15 16 18 20 22 22 23 24 25 24 24 23 24 24
28 28 28 23 22 22 23 24 26 26 26 25 26 26 27 23 23 23 24 23 23 22 21 19 17 16 15 14 14 14 16 18 21 22 23 23 23 24 24 23 24 24 24
23 21 21 22 23 24 25 27 27 26 25 25 26 26 27 24 24 24 24 24 24 23 21 19 18 17 16 15 15 15 17 20 22 23 24 23 23 24 24 23 23 24 24
21 22 23 25 27 28 27 26 25 26 26 26 25 24 24 24 24 24 25 25 24 23 22 20 19 18 19 18 19 19 20 22 23 24 24 23 23 23 23 22 22 23 24
24 26 26 27 27 26 25 26 26 27 26 26 26 26 26 26 25 25 25 26 25 24 22 21 20 19 18 18 19 22 24 25 25 25 24 24 22 22 22 22 22 23 24
27 27 27 27 25 25 26 26 26 26 26 26 26 26 27 27 26 26 26 25 26 25 23 22 22 21 20 20 21 23 26 27 26 26 24 23 22 22 22 22 22 22 23
28 28 27 26 25 27 27 27 27 27 27 27 27 27 28 27 27 27 27 26 26 25 24 23 22 22 21 22 24 25 26 26 25 25 23 22 22 21 22 21 21 22 22

GFSGL_sfc_dewp_168.txt.gz
Dewpoint
51 61 65 66 66 65 67 67 67 68 67 65 64 61 58 56 55 54 53 51 49 46 42 42 38 38 35 34 33 32 31 29 25 28 33 35 36 36 35 35 35 35 34
53 58 65 65 67 66 67 67 68 67 66 64 62 59 57 55 54 51 49 47 46 42 41 40 37 34 37 37 34 35 33 32 29 32 32 32 34 36 35 35 33 32 33
52 57 64 65 67 67 67 67 68 66 64 62 60 57 55 54 52 50 46 44 43 40 40 38 37 38 37 36 36 34 33 32 32 29 29 31 32 32 33 34 34 34 31
55 57 62 65 67 67 67 67 66 65 62 60 58 56 53 51 48 44 41 41 40 39 40 39 38 38 38 38 35 34 33 32 31 29 29 30 30 32 32 31 30 31 31
54 56 62 64 67 67 67 67 64 62 60 57 55 52 49 47 46 42 41 40 38 40 40 40 41 40 39 36 33 33 34 31 29 28 27 28 28 29 31 31 29 29 30
54 56 60 63 65 65 66 64 62 58 56 53 51 49 46 45 43 42 41 38 38 37 36 36 38 41 40 40 40 39 37 33 30 28 28 29 30 30 32 31 29 28 25
54 56 59 62 62 62 63 61 57 54 53 50 47 45 42 40 40 40 38 31 31 31 31 32 30 32 34 35 36 36 36 36 34 32 31 31 31 33 34 31 30 29 27
55 56 59 61 59 59 57 55 54 52 49 47 44 43 41 39 39 37 34 28 28 29 30 31 32 34 33 32 31 30 31 33 35 33 34 34 34 35 35 33 31 30 29
56 56 59 58 58 56 54 52 51 48 46 44 44 40 37 37 36 34 27 25 24 26 28 31 32 33 35 33 29 29 30 30 31 34 34 34 34 35 34 30 28 26 25
52 57 58 58 56 53 52 50 50 48 45 43 40 37 36 35 34 31 26 23 25 27 31 35 35 34 34 33 30 28 27 29 30 29 29 31 32 32 33 32 29 26 25
53 57 56 55 53 51 50 48 47 44 42 39 37 36 31 26 30 32 29 22 24 26 28 30 33 35 34 34 33 31 30 29 28 28 27 27 28 28 29 31 31 27 25
54 53 52 52 51 49 47 45 43 42 38 36 31 24 24 26 31 33 32 30 31 26 28 31 33 34 34 34 32 33 31 29 26 24 25 25 25 27 29 30 30 29 29
47 47 47 47 46 45 43 42 40 38 36 29 20 24 25 26 29 34 33 33 32 28 29 33 33 32 31 31 31 30 29 27 25 23 23 24 26 28 29 29 28 29 29
45 45 45 44 44 43 42 41 39 36 33 25 22 24 26 28 29 31 31 33 35 30 30 28 28 28 27 26 25 26 26 28 25 23 23 25 26 26 26 26 25 26 26
43 43 43 42 41 40 41 40 39 38 31 22 25 26 26 28 31 31 30 29 29 28 26 23 20 19 18 19 22 24 25 25 24 23 23 24 23 24 25 26 24 24 24
40 40 39 38 38 38 37 36 36 35 33 32 31 28 29 32 32 32 31 31 31 29 22 19 18 17 16 18 20 21 23 25 24 23 23 23 23 24 24 23 23 24 24
38 39 39 38 38 37 36 34 31 32 34 33 32 32 31 32 32 31 31 30 29 26 20 19 16 15 15 16 18 20 22 23 24 23 22 23 24 24 24 22 22 24 24
38 38 38 37 35 30 28 26 25 26 26 29 32 31 32 31 31 30 29 26 23 23 19 15 14 13 14 13 15 19 21 23 23 23 23 23 26 24 24 22 22 24 24
34 31 31 27 25 26 25 25 26 27 27 28 27 29 30 31 30 29 28 23 22 19 17 15 14 13 13 13 13 17 21 22 23 23 23 24 28 25 24 23 23 25 25
34 30 27 25 24 24 25 26 26 26 25 24 24 24 24 25 24 25 25 23 20 18 15 14 13 13 12 12 13 17 21 22 22 22 23 26 28 25 24 23 24 23 24
25 26 27 24 24 25 25 26 25 25 24 24 24 25 26 24 24 24 23 21 19 17 16 14 11 11 11 13 15 18 21 22 23 23 24 27 28 27 23 24 24 23 24
24 23 24 24 26 26 27 26 25 24 24 24 25 25 26 24 24 24 23 21 20 19 19 17 15 14 14 15 17 20 22 22 22 23 23 25 28 25 24 23 23 23 24
25 26 26 27 27 28 26 26 25 25 24 24 23 23 23 24 24 24 24 23 22 21 20 20 17 15 16 18 21 22 22 23 24 24 23 23 26 23 24 24 22 23 23
26 27 26 26 26 26 26 26 26 26 24 24 24 24 25 25 25 25 25 24 23 22 22 21 20 16 17 19 21 22 24 24 24 24 22 22 22 22 22 22 22 23 23
27 27 27 27 26 26 27 26 26 26 25 25 25 25 25 26 26 26 26 25 24 24 23 22 22 20 18 19 21 22 26 27 24 26 21 21 20 21 22 22 22 23 23
28 28 27 28 28 27 27 27 27 27 26 26 26 27 26 26 26 26 27 26 25 24 23 23 23 20 19 21 23 25 26 26 24 26 22 21 20 20 22 22 22 22 23

GFSGL_sfc_dewp_174.txt.gz
Dewpoint
47 49 52 55 56 58 65 68 69 70 70 70 69 69 69 69 69 66 64 60 59 54 50 47 46 47 47 48 43 37 33 33 29 34 35 36 42 41 41 41 38 37 33
46 48 50 55 57 58 60 65 69 69 70 70 70 68 67 65 63 59 58 58 52 48 46 44 44 45 46 46 38 44 40 39 33 38 39 33 38 41 41 42 36 32 33
45 47 51 53 57 59 59 63 65 68 69 69 68 62 61 58 59 55 54 50 48 48 45 44 44 45 46 46 40 38 35 34 34 31 31 31 34 34 36 37 37 38 28
44 47 50 52 56 57 59 61 63 65 68 68 67 63 61 57 55 52 51 49 49 48 45 44 45 44 42 42 40 40 39 34 34 30 29 29 29 35 32 30 30 29 30
43 47 50 53 55 57 57 59 63 66 66 62 62 61 57 53 51 50 50 48 48 44 45 44 43 42 40 39 35 39 38 32 29 28 26 26 29 29 30 30 28 30 33
43 46 49 52 53 57 58 60 64 62 59 57 55 53 52 51 46 47 47 46 45 44 42 42 41 43 42 41 39 38 39 40 38 32 28 30 34 31 30 31 29 30 28
44 45 48 51 53 57 58 61 59 56 54 52 51 50 48 47 45 46 46 46 45 44 42 40 37 37 38 35 38 38 38 37 36 38 35 33 32 33 34 34 35 32 30
45 45 47 50 54 56 59 59 55 53 51 50 48 48 48 47 46 45 45 45 45 43 41 41 40 38 35 34 34 34 34 32 34 30 34 33 32 34 34 33 35 35 32
45 46 47 51 55 57 60 55 53 51 50 48 48 47 47 46 45 43 43 42 39 38 37 37 36 33 34 36 33 34 33 31 32 33 32 33 35 35 32 30 27 28 28
46 48 50 53 56 59 56 52 51 49 48 47 45 46 46 43 41 39 38 34 35 32 34 34 37 34 36 36 35 32 31 31 31 32 31 34 34 34 33 35 30 29 31
50 52 54 58 59 55 51 49 48 46 46 44 43 43 44 42 39 37 36 33 30 27 25 27 30 35 34 34 34 32 31 33 30 28 25 24 27 28 26 30 35 33 33
51 54 56 53 51 50 47 46 45 44 42 41 39 40 41 40 39 37 35 33 33 29 28 28 32 34 34 33 29 32 32 32 24 23 23 23 23 25 26 29 35 37 37
53 52 49 47 45 45 43 42 41 41 40 39 38 36 37 33 34 36 35 33 33 30 28 32 34 32 32 31 32 32 31 24 23 23 22 22 23 25 31 31 34 38 40
47 46 44 43 43 43 43 42 40 39 38 37 36 35 33 35 31 31 30 32 33 31 32 31 32 31 31 30 28 27 23 23 23 23 22 22 23 23 23 25 28 32 35
45 43 42 41 40 38 37 37 37 38 37 35 36 32 28 29 29 30 27 25 27 28 30 28 25 24 23 23 24 24 23 23 23 23 22 22 21 21 21 25 28 32 34
41 40 39 37 37 36 35 33 36 37 37 37 38 37 36 33 32 31 29 29 30 32 24 23 22 21 21 21 21 22 23 25 22 22 23 23 23 21 21 22 27 32 33
38 38 38 37 37 37 36 35 33 36 37 36 35 32 30 30 29 28 30 29 28 26 21 21 21 21 21 21 21 21 21 23 25 22 23 26 25 23 22 22 25 31 32
39 38 38 38 38 39 38 37 36 35 34 34 31 29 28 28 28 29 28 25 20 21 18 17 18 20 20 20 20 20 21 22 23 24 25 28 29 25 23 23 23 30 32
40 39 40 39 38 38 37 37 35 30 29 28 25 26 27 30 30 30 28 19 17 16 16 16 17 18 19 20 20 20 22 21 23 23 27 31 31 26 24 24 23 28 31
39 37 37 38 37 36 33 29 28 30 28 26 23 19 19 20 19 19 19 18 17 16 16 16 16 18 18 18 18 18 20 21 22 22 27 32 31 27 23 24 24 24 30
39 38 36 37 34 28 26 27 26 26 25 24 23 22 25 18 18 18 17 17 16 16 17 16 13 15 16 18 18 17 18 19 19 23 26 32 32 28 25 24 25 23 26
35 33 31 27 26 26 27 26 24 21 21 22 20 19 27 20 20 20 20 19 17 16 16 16 15 16 17 18 18 19 19 19 19 21 24 27 32 27 26 23 23 23 24
28 28 28 28 27 28 25 22 22 21 20 19 18 18 20 22 22 23 23 22 20 18 16 17 17 17 19 21 19 17 19 20 22 21 21 24 26 26 25 24 22 23 23
27 28 26 25 23 23 22 21 20 21 19 19 21 21 23 24 25 26 25 24 23 21 20 20 21 20 21 20 19 16 19 23 21 22 22 22 23 23 23 21 22 23 23
22 24 23 23 22 22 21 21 21 21 21 22 23 24 24 25 25 26 26 25 24 23 21 21 21 22 23 23 21 20 26 28 25 27 20 21 21 24 24 21 23 22 23
24 25 24 24 23 22 23 23 23 24 24 25 26 26 26 26 26 26 26 25 24 23 22 21 22 21 21 21 23 26 28 28 25 28 24 20 20 20 23 22 22 21 23